| time (UTC) | temp F | wind direction | speed MPH | gust MPH | rain 1hr in | rain 24hr in | rain mn in | humidity % | barometer mb |
| 20260506035751 | 77 | 159 | 4.0 | 12.0 | 0.00 | 0.00 | 0.00 | 88 | 1004.6 |
| 20260506032750 | 78 | 164 | 2.0 | 9.0 | 0.00 | 0.00 | 0.00 | 86 | 1004.2 |
| 20260506022749 | 79 | 165 | 6.0 | 9.0 | 0.00 | 0.00 | 0.00 | 83 | 1003.3 |
| 20260506015748 | 79 | 165 | 0.0 | 9.0 | 0.00 | 0.00 | 0.00 | 81 | 1002.7 |
| 20260506012747 | 80 | 169 | 2.0 | 12.0 | 0.00 | 0.00 | 0.00 | 79 | 1002.7 |
| 20260506005747 | 82 | 170 | 0.0 | 9.0 | 0.00 | 0.00 | 0.00 | 76 | 1002.7 |
| 20260506002746 | 82 | 170 | 6.0 | 10.0 | 0.00 | 0.00 | 0.00 | 74 | 1002.7 |
| 20260505235745 | 83 | 169 | 10.0 | 13.0 | 0.00 | 0.00 | 0.00 | 73 | 1002.7 |
| 20260505232744 | 83 | 175 | 2.0 | 13.0 | 0.00 | 0.00 | 0.00 | 72 | 1002.4 |
| 20260505225743 | 84 | 177 | 7.0 | 15.0 | 0.00 | 0.00 | 0.00 | 71 | 1002.4 |
| 20260505222743 | 85 | 162 | 12.0 | 15.0 | 0.00 | 0.00 | 0.00 | 69 | 1002.2 |
| 20260505215742 | 85 | 163 | 1.0 | 15.0 | 0.00 | 0.00 | 0.00 | 68 | 1002.4 |
| 20260505212741 | 85 | 174 | 11.0 | 16.0 | 0.00 | 0.00 | 0.00 | 69 | 1002.8 |
| 20260505205740 | 84 | 146 | 13.0 | 15.0 | 0.00 | 0.00 | 0.00 | 71 | 1002.9 |
| 20260505202740 | 84 | 165 | 7.0 | 15.0 | 0.00 | 0.00 | 0.00 | 71 | 1003.5 |
| 20260505192738 | 82 | 200 | 4.0 | 15.0 | 0.00 | 0.00 | 0.00 | 72 | 1004.2 |
| 20260505185737 | 81 | 203 | 3.0 | 10.0 | 0.00 | 0.00 | 0.00 | 75 | 1004.4 |
| 20260505182736 | 79 | 184 | 2.0 | 15.0 | 0.00 | 0.00 | 0.00 | 78 | 1004.8 |
| 20260505175736 | 77 | 187 | 6.0 | 14.0 | 0.00 | 0.00 | 0.00 | 82 | 1004.9 |
| 20260505172735 | 76 | 198 | 3.0 | 14.0 | 0.00 | 0.00 | 0.00 | 84 | 1005.2 |
| 20260505152732 | 72 | 200 | 2.0 | 10.0 | 0.00 | 0.00 | 0.00 | 91 | 1005.3 |
| 20260505112726 | 70 | 186 | 3.0 | 12.0 | 0.00 | 0.00 | 0.00 | 91 | 1003.7 |
| 20260505095754 | 71 | 181 | 2.0 | 14.0 | 0.00 | 0.00 | 0.00 | 89 | 1004.0 |
| 20260505092753 | 70 | 178 | 2.0 | 14.0 | 0.00 | 0.00 | 0.00 | 89 | 1004.2 |
| 20260505085752 | 70 | 175 | 6.0 | 15.0 | 0.00 | 0.00 | 0.00 | 90 | 1004.4 |
| 20260505082751 | 70 | 171 | 6.0 | 15.0 | 0.00 | 0.00 | 0.00 | 89 | 1004.3 |
| 20260505065749 | 71 | 159 | 14.0 | 17.0 | 0.00 | 0.00 | 0.00 | 88 | 1005.5 |
| 20260505062748 | 71 | 167 | 15.0 | 17.0 | 0.00 | 0.00 | 0.00 | 87 | 1005.7 |
| 20260505055747 | 71 | 169 | 7.0 | 16.0 | 0.00 | 0.00 | 0.00 | 86 | 1006.0 |